SWR35D LSGG-LOWI

Flight info

Callsign SWR35D
Flight time 0h 44m
Altitude 28000
Route SOSAL N871 KORED DCT BERSU N871 DITON DCT DEGES DCT GAMSA/N0417F270 N871 MADEB MADEB1B
Aircraft A320/M-SDE3FGHIRWY/LB1

Departure

Time 2026-05-07 16:53
Airport Geneva International Airport (LSGG)

Arrival

Time 2026-05-07 17:37
Airport Innsbruck Airport (LOWI)
Time Latitude Longitude Altitude Speed Heading
2026-05-07 16:03 46.23349 6.10980 1404 ft 0 kts 135°
2026-05-07 16:21 46.23349 6.10979 1393 ft 0 kts 135°
2026-05-07 16:39 46.23350 6.10979 1393 ft 0 kts 135°
2026-05-07 16:42 46.23354 6.10972 1393 ft 4 kts 136°
2026-05-07 16:42 46.23375 6.10948 1399 ft 4 kts 148°
2026-05-07 16:42 46.23398 6.10931 1403 ft 4 kts 173°
2026-05-07 16:42 46.23419 6.10936 1396 ft 2 kts 223°
2026-05-07 16:43 46.23423 6.10941 1396 ft 0 kts 223°
2026-05-07 16:47 46.23423 6.10942 1396 ft 0 kts 223°
2026-05-07 16:48 46.23420 6.10938 1396 ft 4 kts 223°
2026-05-07 16:48 46.23338 6.10821 1399 ft 19 kts 223°
2026-05-07 16:48 46.23228 6.10751 1404 ft 14 kts 221°
2026-05-07 16:48 46.23143 6.10625 1398 ft 20 kts 225°
2026-05-07 16:49 46.23042 6.10477 1398 ft 22 kts 226°
2026-05-07 16:49 46.22955 6.10320 1394 ft 13 kts 271°
2026-05-07 16:49 46.23014 6.10218 1395 ft 15 kts 316°
2026-05-07 16:49 46.23046 6.10113 1394 ft 11 kts 237°
2026-05-07 16:50 46.22990 6.10037 1402 ft 12 kts 225°
2026-05-07 16:50 46.22928 6.09932 1398 ft 21 kts 235°
2026-05-07 16:50 46.22796 6.09750 1398 ft 29 kts 225°
2026-05-07 16:50 46.22647 6.09534 1400 ft 31 kts 225°
2026-05-07 16:51 46.22549 6.09279 1413 ft 26 kts 265°
2026-05-07 16:51 46.22638 6.09183 1416 ft 19 kts 36°
2026-05-07 16:51 46.22721 6.09300 1421 ft 0 kts 45°
2026-05-07 16:52 46.22839 6.09473 1421 ft 60 kts 45°
2026-05-07 16:52 46.23293 6.10135 1403 ft 122 kts 45°
2026-05-07 16:53 46.24009 6.11187 1404 ft 168 kts 45°
2026-05-07 16:53 46.24835 6.12433 1937 ft 172 kts 45°
2026-05-07 16:53 46.25665 6.13690 2665 ft 173 kts 46°
2026-05-07 16:53 46.26509 6.14933 3334 ft 178 kts 44°
2026-05-07 16:54 46.27432 6.16279 3627 ft 199 kts 44°
2026-05-07 16:54 46.28470 6.17794 3932 ft 224 kts 44°
2026-05-07 16:54 46.29626 6.19486 4337 ft 248 kts 44°
2026-05-07 16:54 46.30877 6.21315 4985 ft 261 kts 44°
2026-05-07 16:55 46.32168 6.23205 5810 ft 267 kts 45°
2026-05-07 16:55 46.33483 6.25138 6624 ft 273 kts 45°
2026-05-07 16:55 46.34661 6.27321 7364 ft 279 kts 63°
2026-05-07 16:55 46.35560 6.29844 8130 ft 285 kts 64°
2026-05-07 16:56 46.36460 6.32419 8953 ft 290 kts 64°
2026-05-07 16:56 46.37371 6.35042 9767 ft 294 kts 65°
2026-05-07 16:56 46.39305 6.40619 10600 ft 330 kts 64°
2026-05-07 16:57 46.40353 6.43636 11164 ft 340 kts 64°
2026-05-07 16:57 46.41426 6.46723 11851 ft 346 kts 64°
2026-05-07 16:57 46.42518 6.49861 12566 ft 351 kts 63°
2026-05-07 16:57 46.43609 6.52994 13265 ft 355 kts 63°
2026-05-07 16:58 46.44740 6.56256 13950 ft 360 kts 63°
2026-05-07 16:58 46.45852 6.59472 14560 ft 364 kts 63°
2026-05-07 16:58 46.46988 6.62769 14902 ft 367 kts 63°
2026-05-07 16:58 46.48132 6.66083 14989 ft 367 kts 63°
2026-05-07 16:59 46.49275 6.69392 15000 ft 367 kts 63°
2026-05-07 16:59 46.50423 6.72727 15496 ft 371 kts 63°
2026-05-07 16:59 46.51577 6.76092 16170 ft 373 kts 63°
2026-05-07 16:59 46.52741 6.79484 16807 ft 377 kts 63°
2026-05-07 17:00 46.53914 6.82904 17419 ft 381 kts 63°
2026-05-07 17:00 46.55102 6.86370 18051 ft 385 kts 63°
2026-05-07 17:00 46.56504 6.89688 18592 ft 387 kts 52°
2026-05-07 17:00 46.58190 6.92754 19136 ft 390 kts 50°
2026-05-07 17:01 46.59905 6.95829 19689 ft 392 kts 50°
2026-05-07 17:01 46.61629 6.98921 20233 ft 395 kts 50°
2026-05-07 17:01 46.63362 7.02031 20773 ft 398 kts 50°
2026-05-07 17:01 46.65108 7.05171 21293 ft 400 kts 50°
2026-05-07 17:02 46.66863 7.08332 21799 ft 403 kts 50°
2026-05-07 17:02 46.68630 7.11527 22289 ft 406 kts 50°
2026-05-07 17:02 46.70406 7.14748 22783 ft 409 kts 50°
2026-05-07 17:02 46.72190 7.17986 23277 ft 412 kts 50°
2026-05-07 17:03 46.73988 7.21249 23737 ft 414 kts 50°
2026-05-07 17:03 46.75799 7.24539 24136 ft 417 kts 50°
2026-05-07 17:03 46.77616 7.27841 24531 ft 419 kts 50°
2026-05-07 17:03 46.79449 7.31175 24905 ft 422 kts 50°
2026-05-07 17:04 46.81289 7.34526 25275 ft 425 kts 50°
2026-05-07 17:04 46.83145 7.37912 25625 ft 428 kts 49°
2026-05-07 17:04 46.85011 7.41321 25980 ft 431 kts 49°
2026-05-07 17:04 46.86888 7.44757 26334 ft 434 kts 49°
2026-05-07 17:05 46.88775 7.48219 26685 ft 437 kts 49°
2026-05-07 17:05 46.90674 7.51713 27027 ft 440 kts 49°
2026-05-07 17:05 46.92581 7.55231 27378 ft 443 kts 49°
2026-05-07 17:05 46.94497 7.58765 27761 ft 445 kts 49°
2026-05-07 17:06 46.96425 7.62319 27978 ft 445 kts 49°
2026-05-07 17:06 46.98321 7.65818 28009 ft 433 kts 49°
2026-05-07 17:06 47.02028 7.72668 28007 ft 427 kts 49°
2026-05-07 17:07 47.05702 7.79495 28006 ft 426 kts 49°
2026-05-07 17:07 47.09371 7.86321 28015 ft 426 kts 49°
2026-05-07 17:08 47.13039 7.93160 28020 ft 425 kts 50°
2026-05-07 17:08 47.16260 8.00458 28014 ft 426 kts 56°
2026-05-07 17:09 47.19401 8.07828 28013 ft 426 kts 56°
2026-05-07 17:09 47.22547 8.15202 28011 ft 426 kts 56°
2026-05-07 17:10 47.25665 8.22545 28007 ft 426 kts 56°
2026-05-07 17:10 47.28780 8.29953 28012 ft 426 kts 59°
2026-05-07 17:11 47.30644 8.36721 28019 ft 428 kts 75°
2026-05-07 17:11 47.31781 8.45319 28026 ft 427 kts 78°
2026-05-07 17:12 47.32897 8.53924 28026 ft 427 kts 78°
2026-05-07 17:12 47.34007 8.62529 28023 ft 427 kts 78°
2026-05-07 17:13 47.35110 8.71113 28020 ft 426 kts 79°
2026-05-07 17:13 47.36206 8.79719 28020 ft 426 kts 79°
2026-05-07 17:14 47.37285 8.88314 28019 ft 426 kts 79°
2026-05-07 17:14 47.38352 8.96846 28017 ft 426 kts 79°
2026-05-07 17:15 47.39428 9.05458 28016 ft 426 kts 79°
2026-05-07 17:15 47.40494 9.14055 28016 ft 426 kts 79°
2026-05-07 17:16 47.41239 9.22709 28016 ft 426 kts 90°
2026-05-07 17:16 47.41161 9.31454 28015 ft 426 kts 90°
2026-05-07 17:17 47.41092 9.40194 28016 ft 426 kts 90°
2026-05-07 17:17 47.41016 9.48940 28019 ft 426 kts 91°
2026-05-07 17:18 47.40925 9.57689 28023 ft 425 kts 91°
2026-05-07 17:18 47.40678 9.66398 28031 ft 424 kts 99°
2026-05-07 17:19 47.39582 9.74946 28031 ft 424 kts 101°
2026-05-07 17:19 47.38462 9.83479 28029 ft 423 kts 101°
2026-05-07 17:20 47.37346 9.92002 28022 ft 423 kts 101°
2026-05-07 17:20 47.36231 10.00530 28012 ft 424 kts 101°
2026-05-07 17:21 47.35104 10.09024 28016 ft 425 kts 102°
2026-05-07 17:21 47.33965 10.17579 28018 ft 425 kts 102°
2026-05-07 17:22 47.32813 10.26134 28020 ft 425 kts 102°
2026-05-07 17:22 47.31652 10.34676 28026 ft 426 kts 102°
2026-05-07 17:23 47.30476 10.43225 28031 ft 425 kts 102°
2026-05-07 17:23 47.29297 10.51762 28027 ft 425 kts 102°
2026-05-07 17:24 47.28893 10.56082 27877 ft 426 kts 93°
2026-05-07 17:24 47.28957 10.60419 27497 ft 422 kts 83°
2026-05-07 17:24 47.29399 10.64671 26978 ft 418 kts 80°
2026-05-07 17:24 47.29874 10.68872 26471 ft 414 kts 80°
2026-05-07 17:25 47.30345 10.73037 25988 ft 410 kts 80°
2026-05-07 17:25 47.30806 10.77156 25514 ft 407 kts 80°
2026-05-07 17:25 47.31259 10.81252 25044 ft 403 kts 80°
2026-05-07 17:25 47.31705 10.85310 24584 ft 399 kts 80°
2026-05-07 17:26 47.32143 10.89324 24137 ft 395 kts 80°
2026-05-07 17:26 47.32576 10.93308 23681 ft 392 kts 80°
2026-05-07 17:26 47.33004 10.97260 23191 ft 389 kts 80°
2026-05-07 17:26 47.33427 11.01172 22760 ft 384 kts 80°
2026-05-07 17:27 47.33845 11.05038 22321 ft 379 kts 80°
2026-05-07 17:27 47.34260 11.08859 21883 ft 376 kts 80°
2026-05-07 17:27 47.34670 11.12650 21449 ft 372 kts 80°
2026-05-07 17:27 47.35072 11.16401 21011 ft 370 kts 80°
2026-05-07 17:28 47.35469 11.20133 20569 ft 368 kts 80°
2026-05-07 17:28 47.35863 11.23850 20132 ft 366 kts 80°
2026-05-07 17:28 47.36256 11.27559 19672 ft 366 kts 80°
2026-05-07 17:28 47.36647 11.31265 19222 ft 365 kts 80°
2026-05-07 17:29 47.37037 11.34969 18769 ft 365 kts 80°
2026-05-07 17:29 47.37426 11.38655 18326 ft 364 kts 80°
2026-05-07 17:29 47.37814 11.42341 17838 ft 363 kts 81°
2026-05-07 17:29 47.38199 11.46017 17394 ft 361 kts 81°
2026-05-07 17:30 47.38581 11.49663 16957 ft 359 kts 81°
2026-05-07 17:30 47.38959 11.53293 16532 ft 357 kts 81°
2026-05-07 17:30 47.39333 11.56909 16077 ft 355 kts 81°
2026-05-07 17:30 47.39702 11.60504 15659 ft 354 kts 81°
2026-05-07 17:31 47.40067 11.64080 15236 ft 352 kts 81°
2026-05-07 17:31 47.40427 11.67614 14811 ft 351 kts 81°
2026-05-07 17:31 47.40789 11.71172 14382 ft 350 kts 82°
2026-05-07 17:31 47.40848 11.74799 13481 ft 361 kts 99°
2026-05-07 17:32 47.40065 11.78355 12460 ft 371 kts 119°
2026-05-07 17:32 47.38443 11.81343 11436 ft 379 kts 142°
2026-05-07 17:32 47.36095 11.83102 10426 ft 383 kts 167°
2026-05-07 17:32 47.33468 11.83169 9794 ft 376 kts 194°
2026-05-07 17:33 47.31171 11.81580 9429 ft 360 kts 220°
2026-05-07 17:33 47.29641 11.78783 8974 ft 349 kts 245°
2026-05-07 17:33 47.29141 11.75355 8430 ft 343 kts 272°
2026-05-07 17:33 47.29610 11.71946 7886 ft 339 kts 287°
2026-05-07 17:34 47.30310 11.68652 7389 ft 334 kts 285°
2026-05-07 17:34 47.30441 11.65333 6916 ft 320 kts 259°
2026-05-07 17:34 47.29834 11.62252 6391 ft 307 kts 253°
2026-05-07 17:34 47.29312 11.59279 5876 ft 294 kts 258°
2026-05-07 17:35 47.28928 11.56387 5384 ft 282 kts 259°
2026-05-07 17:35 47.28562 11.53614 4913 ft 271 kts 258°
2026-05-07 17:35 47.28197 11.50951 4560 ft 259 kts 258°
2026-05-07 17:35 47.27841 11.48376 4109 ft 255 kts 258°
2026-05-07 17:36 47.27490 11.45836 3677 ft 251 kts 259°
2026-05-07 17:36 47.27149 11.43372 3275 ft 239 kts 259°
2026-05-07 17:36 47.26827 11.41048 2829 ft 224 kts 259°
2026-05-07 17:36 47.26532 11.38936 2480 ft 204 kts 259°
2026-05-07 17:37 47.26303 11.36994 2132 ft 184 kts 261°
2026-05-07 17:37 47.26109 11.35220 1893 ft 160 kts 261°
2026-05-07 17:37 47.26005 11.34240 1904 ft 57 kts 259°
2026-05-07 17:37 47.25939 11.33707 1917 ft 29 kts 253°
2026-05-07 17:38 47.25908 11.33367 1918 ft 49 kts 262°
2026-05-07 17:38 47.25860 11.33154 1919 ft 2 kts 173°
2026-05-07 17:38 47.25899 11.33212 1919 ft 18 kts 38°